Location: Newark
(25.4800°N, 85.7200°E)
Time: 14:33:03
(UTC+00:00)

Explorer 11/Cluster Stage 4 - Pass Details

Date: 23 August 2019
Orbit: 467 x 1260 km, 28.8° (Epoch: 19 September)

Event Time Altitude Azimuth Distance (km) Brightness Sun altitude
Rises 06:14:48 0° 270° (W) 4,174 10.3 76.0°
Reaches altitude 10° 06:17:44 10° 272° (W) 3,229 9.9 76.0°
Maximum altitude 06:26:01 71° 356° (N) 1,291 8.8 76.0°
Drops below altitude 10° 06:33:41 10° 80° (E) 3,000 9.6 75.7°
Sets 06:36:19 0° 82° (E) 3,865 10.1 75.5°
